Вернуться в каталог

COSMOS 249 DEB *

АктивенLEO
NORAD 6176·DEBRIS·🇷🇺 Russia

Запущен Oct 20, 1968 с Baikonur Cosmodrome

Loading…

Ближайшие Пролёты (ближайшие 24 часа)

TLE

СвежийSource: Space-Track

Эпоха: Sep 14, 2026, 08:26 UTC

1 06176U 68091CG  26257.35191359 -.00000003  00000-0  11387-3 0  9999
2 06176  65.7283  30.1855 0465083   1.8505 358.4109 13.08546497170858

Отслеживайте COSMOS 249 DEB * в реальном времени с AllMySat

Download on the App Store